Miscellaneous Local Product
Issued by NWS Hastings, NE

Home | Current Version | Previous Version | Text Only | Print | Product List | Glossary On
Versions: 1 2 3 4 5 6 7 8 9 10 11 12 13 14 15 16 17 18 19 20 21 22 23 24 25 26 27 28 29 30 31 32 33 34 35 36 37 38 39 40 41 42 43 44 45 46 47 48 49 50
171
AXUS43 KGID 170402
MISGRI

GID CWA HOURLY WEATHER ROUNDUP
NATIONAL WEATHER SERVICE HASTINGS NE
1100 PM CDT MON OCT 16 2017

NOTE: "FAIR" INDICATES FEW OR NO CLOUDS BELOW 12,000 FEET WITH NO
SIGNIFICANT WEATHER AND/OR OBSTRUCTIONS TO VISIBILITY.

...SOUTH CENTRAL NEBRASKA...

CITY           SKY/WX    TMP DP  RH WIND       PRES   REMARKS
GRAND ISLAND   MOCLDY    59  38  45 S14       30.09R
HASTINGS       CLOUDY    59  36  42 S10       30.11S
KEARNEY        PTCLDY    57  36  45 S13       30.10S
ORD            CLEAR     51  36  56 CALM      30.06R
YORK           MOCLDY    55  39  54 S12       30.11S
AURORA         MOCLDY    56  37  48 S12G17    30.10S
LEXINGTON      CLEAR     56  36  48 N3        30.10R
HOLDREGE       CLEAR     56  37  49 S8        30.10S
HEBRON         CLOUDY    56  40  55 S9        30.14S

...NEBRASKA PANHANDLE...

CITY           SKY/WX    TMP DP  RH WIND       PRES   REMARKS
CHADRON        CLEAR     43  28  55 SW5       30.14R
ALLIANCE       CLEAR     34  27  75 W6        30.17R WCI  29
SCOTTSBLUFF    CLEAR     42  27  55 S6        30.19R
SIDNEY         CLEAR     40  25  55 W7        30.22R

...WESTERN AND NORTH CENTRAL NEBRASKA...

CITY           SKY/WX    TMP DP  RH WIND       PRES   REMARKS
VALENTINE      CLEAR     47  33  58 W5        30.10R
AINSWORTH      CLEAR     46  37  68 W5        30.09R
ONEILL         CLEAR     53  41  63 S5        30.05F
BROKEN BOW     CLOUDY    49  38  65 CALM      30.08R
IMPERIAL       CLEAR     50  31  48 W8        30.14S
NORTH PLATTE   CLEAR     43  36  76 W7        30.12R
MCCOOK         PTCLDY    57  39  51 W9        30.11R

...EASTERN NEBRASKA...

CITY           SKY/WX    TMP DP  RH WIND       PRES   REMARKS
NORFOLK        CLEAR     58  39  49 S14       30.05S
SO SIOUX CITY  PTCLDY    51  41  68 E6        30.06S
TEKAMAH        PTCLDY    57  32  38 S8        30.09S
COLUMBUS       CLEAR     59  39  47 S13       30.10R
ALBION         CLEAR     56  38  52 SE3       30.08R
OMAHA EPPLEY   PTCLDY    57  41  55 S13       30.13R
OFFUTT AFB     PTCLDY    49  41  73 E6        30.13S
MILLARD        MOCLDY    61  42  49 S5        30.13S
LINCOLN        CLOUDY    59  40  49 S14       30.14S
NEBRASKA CITY  MOCLDY    55  42  61 SW12      30.16R
BEATRICE       CLEAR     57  42  57 S10       30.15F
FALLS CITY     CLEAR     53  40  61 S9        30.18R

...NORTHERN KANSAS...

CITY           SKY/WX    TMP DP  RH WIND       PRES   REMARKS
GOODLAND       CLEAR     54  32  43 SW8       30.15S
HILL CITY      CLEAR     58  37  45 SW6       30.14R
NORTON         CLEAR     55  32  41 SW9       30.10S
PHILLIPSBURG   CLEAR     57  36  44 S5        30.12S
SMITH CENTER   PTCLDY    52  37  58 SE8       30.13S
HAYS           CLOUDY    54  36  50 S9        30.16S
RUSSELL        PTCLDY    56  40  55 S15       30.15S
CONCORDIA      MOCLDY    57  40  52 S18G24    30.15F
SALINA         PTCLDY    55  43  63 S12       30.20F
TOPEKA         CLEAR     54  43  66 S6        30.23F



USA.gov is the U.S. government's official web portal to all federal, state and local government web resources and services.